CW8027 Weather Reports


time (UTC)temp
F
wind
direction
speed
knots
gust
knots
rain 1hr
in
rain 24hr
in
rain mn
in
humidity
%
barometer
mb
20260504045028 47 242 1.7 7.0 0.00 0.00 0.00 58 1005.8
20260504044030 47 213 3.5 7.8 0.00 0.00 0.00 58 1005.8
20260504043037 47 209 4.3 7.0 0.00 0.00 0.00 57 1005.9
20260504042046 47 179 3.5 8.7 0.00 0.00 0.00 56 1006.1
20260504041046 47 213 2.6 7.0 0.00 0.00 0.00 57 1006.0
20260504040106 46 195 2.6 5.2 0.00 0.00 0.00 59 1006.0
20260504035041 46 214 3.5 8.7 0.00 0.00 0.00 62 1006.0
20260504034051 46 168 2.6 5.2 0.00 0.00 0.00 62 1005.9
20260504033028 47 176 3.5 6.1 0.00 0.00 0.00 60 1006.0
20260504032029 47 181 3.5 6.1 0.00 0.00 0.00 56 1006.0
20260504031023 48 171 2.6 8.7 0.00 0.00 0.00 54 1006.0
20260504030026 48 164 4.3 10.4 0.00 0.00 0.00 53 1006.0
20260504025035 48 214 5.2 8.7 0.00 0.00 0.00 53 1006.0
20260504024037 48 189 3.5 7.0 0.00 0.00 0.00 53 1006.2
20260504023029 49 198 2.6 6.1 0.00 0.00 0.00 52 1006.3
20260504022032 49 180 2.6 8.7 0.00 0.00 0.00 51 1006.3
20260504021040 49 236 4.3 7.8 0.00 0.00 0.00 49 1006.5
20260504020042 50 190 3.5 9.6 0.00 0.00 0.00 48 1006.5
20260504015031 50 227 6.1 11.3 0.00 0.00 0.00 48 1006.7
20260504014031 50 203 4.3 10.4 0.00 0.00 0.00 47 1006.6
20260504013041 51 165 7.8 13.9 0.00 0.00 0.00 47 1006.6
20260504012043 51 234 6.1 13.9 0.00 0.00 0.00 47 1006.7
20260504011033 51 249 6.1 10.4 0.00 0.00 0.00 46 1006.6
20260504010033 51 228 5.2 10.4 0.00 0.00 0.00 46 1006.7
20260504005041 51 211 6.1 8.7 0.00 0.00 0.00 45 1006.4
20260504004114 52 211 6.1 10.4 0.00 0.00 0.00 44 1006.4
20260504003035 52 257 7.0 13.0 0.00 0.00 0.00 44 1006.4
20260504002046 52 215 6.1 13.9 0.00 0.00 0.00 43 1006.3
20260504001027 52 221 6.1 13.9 0.00 0.00 0.00 43 1006.3
20260504000028 52 221 6.1 13.9 0.00 0.00 0.00 42 1006.2
20260503235035 53 235 4.3 13.0 0.00 0.00 0.00 41 1006.3
20260503234037 53 198 8.7 13.9 0.00 0.00 0.00 39 1006.5
20260503233028 53 275 5.2 11.3 0.00 0.00 0.00 38 1006.2
20260503232032 54 235 3.5 10.4 0.00 0.00 0.00 36 1006.1
20260503231037 54 316 3.5 7.8 0.00 0.00 0.00 36 1006.2
20260503230049 54 289 5.2 10.4 0.00 0.00 0.00 35 1006.3
20260503225102 54 290 4.3 14.8 0.00 0.00 0.00 36 1006.3
20260503224045 54 242 8.7 14.8 0.00 0.00 0.00 35 1006.2
20260503223055 54 266 8.7 13.0 0.00 0.00 0.00 35 1006.2
20260503222032 54 254 7.8 13.9 0.00 0.00 0.00 35 1006.2
20260503221030 55 289 6.1 13.9 0.00 0.00 0.00 35 1006.2
20260503220038 54 259 7.8 13.0 0.00 0.00 0.00 35 1006.3
20260503215048 54 219 6.1 13.0 0.00 0.00 0.00 35 1006.3
20260503214046 55 249 8.7 17.4 0.00 0.00 0.00 34 1006.3
20260503213049 54 292 7.8 13.0 0.00 0.00 0.00 34 1006.3
20260503212032 54 278 4.3 15.6 0.00 0.00 0.00 35 1006.3
20260503211028 55 240 8.7 17.4 0.00 0.00 0.00 36 1006.1
20260503210038 53 303 7.8 19.1 0.00 0.00 0.00 38 1006.3
20260503205048 53 258 7.8 14.8 0.00 0.00 0.00 38 1006.3
20260503204030 53 240 8.7 17.4 0.00 0.00 0.00 38 1006.3
20260503203039 54 283 9.6 15.6 0.00 0.00 0.00 38 1006.5
20260503202036 53 278 7.0 17.4 0.00 0.00 0.00 39 1006.5
20260503201028 53 232 9.6 15.6 0.00 0.00 0.00 38 1006.6
20260503200057 53 274 8.7 14.8 0.00 0.00 0.00 40 1006.6
20260503195057 52 248 7.8 13.9 0.00 0.00 0.00 40 1006.8
20260503194025 52 266 7.8 14.8 0.00 0.00 0.00 40 1007.1
20260503193028 52 259 5.2 12.2 0.00 0.00 0.00 40 1007.1
20260503192034 53 214 7.8 13.9 0.00 0.00 0.00 40 1007.2
20260503191037 53 273 8.7 15.6 0.00 0.00 0.00 41 1007.2
20260503190045 52 252 7.8 16.5 0.00 0.00 0.00 42 1007.3
20260503185051 52 291 4.3 13.9 0.00 0.04 0.00 41 1007.5
20260503184032 51 251 7.8 13.0 0.00 0.04 0.00 41 1007.6
20260503183044 52 277 3.5 9.6 0.00 0.04 0.00 43 1007.6
20260503182024 51 291 4.3 12.2 0.00 0.04 0.00 43 1007.8
20260503181051 51 289 5.2 10.4 0.00 0.04 0.00 44 1008.0
20260503180030 50 264 10.4 15.6 0.00 0.16 0.00 45 1008.0
20260503175040 50 302 8.7 13.9 0.00 0.16 0.00 44 1008.0
20260503174051 49 264 3.5 10.4 0.00 0.16 0.00 48 1008.1
20260503173031 49 281 7.0 12.2 0.00 0.16 0.00 47 1008.1
20260503172033 49 278 4.3 10.4 0.00 0.16 0.00 49 1008.1
20260503171024 49 303 4.3 12.2 0.00 0.16 0.00 49 1008.4
20260503131034 44 53 0.9 2.6 0.00 0.16 0.00 69 1011.1
20260503081035 39 280 0.9 3.5 0.00 0.63 0.00 84 1011.0